Location: ???????
(55.4231°N, 38.5570°E)
Time: 13:46:52
(UTC+00:00)

Cosmos 1933 Rocket - Pass Details

Date: 05 August 2024
Orbit: 602 x 626 km, 82.5° (Epoch: 18 September)

Event Time Altitude Azimuth Distance (km) Brightness Sun altitude
Exits shadow 00:38:46 - 186° (S) 2,617 6.3 -7.6°
Reaches altitude 10° 00:40:17 10° 185° (S) 1,997 5.7 -7.5°
Maximum altitude 00:44:43 78° 100° (E) 644 3.7 -7.0°
Drops below altitude 10° 00:49:09 10° 14° (NNE) 2,001 7.2 -6.6°
Sets 00:51:23 0° 13° (NNE) 2,908 8.1 -6.4°
